GW7078 Weather Reports


time (UTC)temp
F
wind
direction
speed
knots
gust
knots
rain 1hr
in
rain 24hr
in
rain mn
in
humidity
%
barometer
mb
20260503193029 65 227 1.7 7.0 0.00 0.00 0.00 35 1009.7
20260503192509 65 349 2.6 7.0 0.00 0.00 0.00 33 1009.9
20260503192006 65 260 1.7 7.0 0.00 0.00 0.00 32 1010.0
20260503191518 66 195 3.5 7.0 0.00 0.00 0.00 31 1010.0
20260503191006 66 186 0.9 7.8 0.00 0.00 0.00 33 1010.2
20260503190512 65 241 2.6 7.8 0.00 0.00 0.00 32 1010.3
20260503190030 65 267 0.9 6.1 0.00 0.00 0.00 33 1010.2
20260503185507 65 219 1.7 9.6 0.00 0.00 0.00 33 1010.4
20260503185003 64 201 3.5 8.7 0.00 0.00 0.00 33 1010.3
20260503184504 64 194 1.7 12.2 0.00 0.00 0.00 35 1010.4
20260503184006 63 222 2.6 8.7 0.00 0.00 0.00 35 1010.5
20260503183506 62 324 1.7 5.2 0.00 0.00 0.00 35 1010.6
20260503183007 62 277 1.7 6.1 0.00 0.00 0.00 35 1010.7
20260503182505 62 248 1.7 7.0 0.00 0.00 0.00 34 1010.7
20260503182014 62 270 1.7 7.0 0.00 0.00 0.00 36 1010.8
20260503181513 62 186 1.7 4.3 0.00 0.00 0.00 36 1010.9
20260503181009 62 160 1.7 6.1 0.00 0.00 0.00 35 1011.0
20260503180506 62 251 1.7 6.1 0.00 0.00 0.00 37 1011.0
20260503180021 62 267 1.7 7.0 0.00 0.00 0.00 35 1011.1
20260503175506 62 238 2.6 7.0 0.00 0.00 0.00 34 1011.3
20260503175008 62 250 2.6 7.0 0.00 0.00 0.00 34 1011.3
20260503174527 63 210 0.9 4.3 0.00 0.00 0.00 36 1011.4
20260503174003 63 263 0.9 5.2 0.00 0.00 0.00 38 1011.4
20260503173504 62 309 1.7 6.1 0.00 0.00 0.00 38 1011.5
20260503173016 62 130 1.7 6.1 0.00 0.00 0.00 36 1011.5
20260503172506 61 360 1.7 7.0 0.00 0.00 0.00 37 1011.6
20260503172007 61 225 2.6 7.0 0.00 0.00 0.00 37 1011.7
20260503171514 60 209 2.6 7.0 0.00 0.00 0.00 35 1011.9
20260503171007 61 275 3.5 7.0 0.00 0.00 0.00 37 1012.0
20260503170508 60 257 0.9 5.2 0.00 0.00 0.00 39 1012.1
20260503151005 60 230 1.7 7.8 0.00 0.00 0.00 38 1012.8
20260503150505 60 225 1.7 6.1 0.00 0.00 0.00 38 1012.9
20260503131008 51 259 1.7 3.5 0.00 0.00 0.00 47 1013.5
20260503130511 51 221 0.9 3.5 0.00 0.00 0.00 47 1013.4
20260503110512 31 338 0.0 1.7 0.00 0.00 0.00 81 1013.7
20260503090503 31 338 0.0 0.0 0.00 0.00 0.00 81 1014.3
20260503081514 31 338 0.0 0.0 0.00 0.00 0.00 81 1014.6
20260503081006 31 338 0.0 0.0 0.00 0.00 0.00 81 1014.6
20260503080506 32 338 0.0 0.0 0.00 0.00 0.00 81 1014.6
20260503072503 32 338 0.0 0.0 0.00 0.00 0.00 81 1014.8
20260503072004 32 338 0.0 0.0 0.00 0.00 0.00 80 1014.8
20260503071517 32 338 0.0 0.0 0.00 0.00 0.00 80 1014.7
20260503071004 32 338 0.0 0.0 0.00 0.00 0.00 80 1014.8
20260503070506 32 338 0.0 0.0 0.00 0.00 0.00 81 1014.7
20260503055005 33 338 0.0 0.0 0.00 0.00 0.00 79 1015.4
20260503054526 33 338 0.0 0.0 0.00 0.00 0.00 78 1015.4
20260503054006 34 338 0.0 0.0 0.00 0.00 0.00 78 1015.4
20260503053503 34 338 0.0 0.0 0.00 0.00 0.00 77 1015.4
20260503053013 34 338 0.0 0.0 0.00 0.00 0.00 78 1015.4
20260503052504 34 338 0.0 0.0 0.00 0.00 0.00 77 1015.4
20260503052009 34 338 0.0 0.0 0.00 0.00 0.00 77 1015.5
20260503051512 34 338 0.0 0.0 0.00 0.00 0.00 77 1015.5
20260503051003 34 338 0.0 0.0 0.00 0.00 0.00 77 1015.5
20260503050505 34 338 0.0 0.0 0.00 0.00 0.00 76 1015.5
20260503050011 34 338 0.0 0.0 0.00 0.00 0.00 77 1015.6
20260503045509 35 338 0.0 0.0 0.00 0.00 0.00 76 1015.6
20260503045005 35 338 0.0 0.0 0.00 0.00 0.00 76 1015.6
20260503044514 35 338 0.0 0.0 0.00 0.00 0.00 76 1015.6
20260503044006 35 338 0.0 0.0 0.00 0.00 0.00 75 1015.6
20260503043506 35 338 0.0 0.0 0.00 0.00 0.00 76 1015.6
20260503043015 35 338 0.0 0.0 0.00 0.00 0.00 76 1015.7
20260503042507 35 338 0.0 0.0 0.00 0.00 0.00 75 1015.7
20260503042010 35 338 0.0 0.0 0.00 0.00 0.00 75 1015.7
20260503041514 35 338 0.0 0.0 0.00 0.00 0.00 75 1015.6
20260503041007 36 338 0.0 0.0 0.00 0.00 0.00 75 1015.7
20260503040511 36 338 0.0 0.0 0.00 0.00 0.00 74 1015.7
20260503040014 36 338 0.0 0.0 0.00 0.00 0.00 74 1015.8
20260503035506 36 338 0.0 0.0 0.00 0.00 0.00 75 1015.8
20260503035009 36 338 0.0 0.0 0.00 0.00 0.00 75 1015.8
20260503034516 36 338 0.0 0.0 0.00 0.00 0.00 74 1015.8
20260503034006 36 338 0.0 0.0 0.00 0.00 0.00 74 1015.8
20260503033507 36 338 0.0 0.0 0.00 0.00 0.00 74 1015.9
20260503033023 36 338 0.0 0.0 0.00 0.00 0.00 74 1015.9
20260503032506 36 338 0.0 0.0 0.00 0.00 0.00 73 1015.9
20260503032009 36 338 0.0 0.0 0.00 0.00 0.00 72 1015.9
20260503031516 37 338 0.0 0.0 0.00 0.00 0.00 73 1015.9
20260503031007 37 338 0.0 0.0 0.00 0.00 0.00 73 1016.0
20260503030510 37 338 0.0 0.0 0.00 0.00 0.00 71 1016.0
20260503030016 37 338 0.0 0.0 0.00 0.00 0.00 70 1016.0
20260503025509 37 338 0.0 0.0 0.00 0.00 0.00 69 1016.0
20260503025008 37 338 0.0 0.0 0.00 0.00 0.00 69 1016.0
20260503024515 37 338 0.0 0.0 0.00 0.00 0.00 69 1016.1
20260503024003 37 338 0.0 0.0 0.00 0.00 0.00 69 1016.0
20260503023509 38 338 0.0 0.0 0.00 0.00 0.00 68 1016.1
20260503023019 38 338 0.0 0.0 0.00 0.00 0.00 67 1016.2
20260503022507 38 338 0.0 0.0 0.00 0.00 0.00 67 1016.2
20260503022013 38 338 0.0 0.0 0.00 0.00 0.00 66 1016.3
20260503021517 38 338 0.0 0.0 0.00 0.00 0.00 65 1016.1
20260503021009 39 338 0.0 0.0 0.00 0.00 0.00 65 1016.2
20260503020509 39 338 0.0 0.0 0.00 0.00 0.00 65 1016.1
20260503020016 39 338 0.0 0.0 0.00 0.00 0.00 64 1016.1
20260503015505 39 338 0.0 0.0 0.00 0.00 0.00 64 1016.1
20260503015006 39 338 0.0 0.0 0.00 0.00 0.00 63 1016.0
20260503014517 40 338 0.0 0.0 0.00 0.00 0.00 61 1016.0
20260503014007 40 338 0.0 0.0 0.00 0.00 0.00 61 1016.0
20260503013507 40 338 0.0 0.0 0.00 0.00 0.00 61 1016.0
20260503013015 40 338 0.0 0.0 0.00 0.00 0.00 59 1016.0
20260503012507 41 338 0.0 0.0 0.00 0.00 0.00 59 1016.0
20260503012009 41 338 0.0 0.0 0.00 0.00 0.00 58 1015.9
20260503011520 42 338 0.0 0.0 0.00 0.00 0.00 58 1015.9
20260503011004 42 338 0.0 0.0 0.00 0.00 0.00 56 1015.9
20260503010508 42 338 0.0 0.0 0.00 0.00 0.00 54 1015.9
20260503010016 43 338 0.0 0.0 0.00 0.00 0.00 52 1016.0
20260503005506 43 338 0.0 0.0 0.00 0.00 0.00 53 1015.9
20260503005012 43 338 0.0 0.0 0.00 0.00 0.00 52 1015.8
20260503004525 44 338 0.0 0.0 0.00 0.00 0.00 53 1015.7
20260503004007 44 338 0.0 0.0 0.00 0.00 0.00 53 1015.7
20260503003507 45 338 0.0 0.0 0.00 0.00 0.00 51 1015.9
20260503003036 45 338 0.0 0.0 0.00 0.00 0.00 50 1015.8
20260503002507 45 338 0.0 0.0 0.00 0.00 0.00 49 1015.7
20260503002008 46 338 0.0 0.0 0.00 0.00 0.00 49 1015.6
20260503001527 46 338 0.0 0.0 0.00 0.00 0.00 46 1015.6
20260503001007 46 338 0.0 0.0 0.00 0.00 0.00 47 1015.6
20260503000506 47 338 0.0 0.9 0.00 0.00 0.00 45 1015.6
20260503000019 47 338 0.0 1.7 0.00 0.00 0.00 43 1015.7
20260502235510 47 20 0.0 1.7 0.00 0.00 0.00 41 1015.8
20260502235008 47 326 0.0 3.5 0.00 0.00 0.00 41 1015.7
20260502234523 47 305 0.0 3.5 0.00 0.00 0.00 41 1015.6
20260502234006 48 301 0.9 3.5 0.00 0.00 0.00 40 1015.6
20260502233508 48 352 0.9 1.7 0.00 0.00 0.00 40 1015.7
20260502233024 48 325 0.0 1.7 0.00 0.00 0.00 43 1015.6
20260502232507 48 340 0.0 1.7 0.00 0.00 0.00 41 1015.7
20260502232009 48 352 0.9 3.5 0.00 0.00 0.00 40 1015.7
20260502231520 48 46 0.0 4.3 0.00 0.00 0.00 39 1015.8
20260502231004 48 274 0.0 4.3 0.00 0.00 0.00 43 1015.7
20260502230508 48 336 0.0 2.6 0.00 0.00 0.00 42 1015.8
20260502230017 48 232 0.9 2.6 0.00 0.00 0.00 41 1015.8
20260502225508 48 5 0.0 2.6 0.00 0.00 0.00 43 1015.8
20260502225014 47 13 0.0 2.6 0.00 0.00 0.00 43 1015.8
20260502224517 47 327 0.9 2.6 0.00 0.00 0.00 42 1015.8
20260502224009 47 337 0.9 3.5 0.00 0.00 0.00 41 1015.8
20260502223511 48 235 0.0 3.5 0.00 0.00 0.00 41 1015.9
20260502223020 48 271 0.9 2.6 0.00 0.00 0.00 41 1015.9
20260502222508 48 300 0.0 3.5 0.00 0.00 0.00 39 1015.9
20260502222007 48 243 0.9 4.3 0.00 0.00 0.00 40 1015.9
20260502221521 48 257 2.6 4.3 0.00 0.00 0.00 39 1015.9
20260502221007 48 297 0.9 3.5 0.00 0.00 0.00 40 1015.8
20260502220509 48 251 1.7 4.3 0.00 0.00 0.00 41 1015.8
20260502220016 48 352 1.7 4.3 0.00 0.00 0.00 41 1015.7
20260502215512 48 223 0.9 3.5 0.00 0.00 0.00 42 1015.8
20260502215009 48 65 0.9 2.6 0.00 0.00 0.00 41 1015.8
20260502214520 47 236 0.0 2.6 0.00 0.00 0.00 39 1016.0
20260502214002 48 337 0.9 3.5 0.00 0.00 0.00 38 1016.0
20260502213504 48 331 1.7 3.5 0.00 0.00 0.00 37 1016.0
20260502213006 48 248 0.9 3.5 0.00 0.00 0.00 39 1016.0
20260502212502 48 352 1.7 3.5 0.00 0.00 0.00 39 1016.0
20260502212005 48 352 0.0 3.5 0.00 0.00 0.00 44 1016.0
20260502211514 47 9 0.9 3.5 0.00 0.00 0.00 40 1016.0
20260502211003 47 40 0.9 5.2 0.00 0.00 0.00 39 1016.0
20260502210507 48 173 1.7 7.0 0.00 0.00 0.00 39 1015.9
20260502210014 48 250 1.7 7.0 0.00 0.00 0.00 41 1015.9
20260502205507 48 340 0.9 2.6 0.00 0.00 0.00 40 1015.9
20260502205007 48 346 0.9 2.6 0.00 0.00 0.00 41 1016.1
20260502204519 48 285 0.9 2.6 0.00 0.00 0.00 40 1016.2
20260502204007 47 19 0.9 1.7 0.00 0.00 0.00 41 1016.2
20260502203510 47 324 0.9 4.3 0.00 0.00 0.00 42 1016.3
20260502203005 47 291 0.0 4.3 0.00 0.00 0.00 40 1016.3
20260502202504 47 36 1.7 3.5 0.00 0.00 0.00 39 1016.3
20260502202004 47 56 0.9 3.5 0.00 0.00 0.00 39 1016.3
20260502201506 47 352 1.7 3.5 0.00 0.00 0.00 39 1016.4
20260502201003 47 342 0.9 3.5 0.00 0.00 0.00 39 1016.4
20260502200506 47 348 0.9 3.5 0.00 0.00 0.00 39 1016.4
20260502200011 47 43 0.9 3.5 0.00 0.00 0.00 39 1016.4
20260502195507 47 296 0.9 3.5 0.00 0.00 0.00 40 1016.5
20260502195008 47 221 0.9 4.3 0.00 0.00 0.00 40 1016.6
20260502194521 47 309 1.7 4.3 0.00 0.00 0.00 40 1016.7
20260502194008 47 352 0.9 3.5 0.00 0.00 0.00 42 1016.7
20260502193507 47 278 0.0 3.5 0.00 0.00 0.00 40 1016.8